| time (UTC) | temp F | wind direction | speed knots | gust knots | rain 1hr in | rain 24hr in | rain mn in | humidity % | barometer mb |
| 20260906191818 | 82 | 0.0 | 0.0 | 0.00 | 0.00 | 0.00 | 61 | 1021.9 | |
| 20260906190835 | 83 | 0.0 | 0.0 | 0.00 | 0.00 | 0.00 | 61 | 1021.6 | |
| 20260906185811 | 83 | 0.0 | 0.0 | 0.00 | 0.00 | 0.00 | 60 | 1021.6 | |
| 20260906184827 | 83 | 0.0 | 0.0 | 0.00 | 0.00 | 0.00 | 58 | 1021.5 | |
| 20260906183758 | 84 | 0.0 | 0.0 | 0.00 | 0.00 | 0.00 | 57 | 1021.3 | |
| 20260906182755 | 84 | 0.0 | 0.9 | 0.00 | 0.00 | 0.00 | 57 | 1021.3 | |
| 20260906181805 | 84 | 0.0 | 0.9 | 0.00 | 0.00 | 0.00 | 56 | 1021.2 | |
| 20260906180735 | 85 | 337 | 0.0 | 0.9 | 0.00 | 0.00 | 0.00 | 56 | 1021.2 |
| 20260906175731 | 85 | 315 | 0.0 | 2.6 | 0.00 | 0.00 | 0.00 | 55 | 1021.2 |
| 20260906174725 | 86 | 112 | 0.9 | 1.7 | 0.00 | 0.00 | 0.00 | 54 | 1021.2 |
| 20260906173722 | 87 | 135 | 1.7 | 2.6 | 0.00 | 0.00 | 0.00 | 51 | 1021.0 |
| 20260906172718 | 87 | 0.0 | 0.0 | 0.00 | 0.00 | 0.00 | 50 | 1021.1 | |
| 20260906171208 | 87 | 135 | 0.9 | 1.7 | 0.00 | 0.00 | 0.00 | 50 | 1021.0 |
| 20260906170205 | 87 | 0.0 | 0.9 | 0.00 | 0.00 | 0.00 | 50 | 1020.8 | |
| 20260906165201 | 88 | 112 | 0.9 | 2.6 | 0.00 | 0.00 | 0.00 | 49 | 1020.8 |
| 20260906164157 | 88 | 67 | 0.0 | 2.6 | 0.00 | 0.00 | 0.00 | 50 | 1020.6 |
| 20260906163154 | 88 | 315 | 0.0 | 0.9 | 0.00 | 0.00 | 0.00 | 49 | 1020.5 |
| 20260906162150 | 88 | 315 | 0.0 | 2.6 | 0.00 | 0.00 | 0.00 | 49 | 1020.6 |
| 20260906161147 | 88 | 45 | 2.6 | 3.5 | 0.00 | 0.00 | 0.00 | 50 | 1020.6 |
| 20260906160143 | 88 | 315 | 0.9 | 2.6 | 0.00 | 0.00 | 0.00 | 49 | 1020.8 |
| 20260906155134 | 88 | 0.0 | 0.0 | 0.00 | 0.00 | 0.00 | 49 | 1020.7 | |
| 20260906154151 | 89 | 0.0 | 0.9 | 0.00 | 0.00 | 0.00 | 48 | 1021.1 | |
| 20260906153126 | 88 | 135 | 0.0 | 1.7 | 0.00 | 0.00 | 0.00 | 49 | 1020.7 |
| 20260906152142 | 89 | 135 | 0.0 | 0.9 | 0.00 | 0.00 | 0.00 | 49 | 1020.7 |
| 20260906151119 | 88 | 315 | 0.0 | 0.9 | 0.00 | 0.00 | 0.00 | 49 | 1020.9 |
| 20260906150110 | 89 | 157 | 0.0 | 0.9 | 0.00 | 0.00 | 0.00 | 49 | 1020.6 |
| 20260906145126 | 90 | 0.0 | 0.0 | 0.00 | 0.00 | 0.00 | 47 | 1021.1 | |
| 20260906144101 | 89 | 315 | 0.9 | 1.7 | 0.00 | 0.00 | 0.00 | 49 | 1020.8 |
| 20260906143058 | 88 | 157 | 0.0 | 1.7 | 0.00 | 0.00 | 0.00 | 50 | 1020.9 |
| 20260906142054 | 89 | 135 | 0.0 | 0.9 | 0.00 | 0.00 | 0.00 | 49 | 1021.1 |
| 20260906140245 | 89 | 292 | 0.0 | 1.7 | 0.00 | 0.00 | 0.00 | 48 | 1021.1 |
| 20260906135243 | 89 | 315 | 1.7 | 1.7 | 0.00 | 0.00 | 0.00 | 48 | 1021.1 |
| 20260906134239 | 87 | 157 | 2.6 | 5.2 | 0.00 | 0.00 | 0.00 | 51 | 1021.4 |
| 20260906133255 | 88 | 315 | 0.9 | 2.6 | 0.00 | 0.00 | 0.00 | 50 | 1021.3 |
| 20260906132232 | 89 | 119 | 0.9 | 2.6 | 0.00 | 0.00 | 0.00 | 49 | 1021.5 |
| 20260906131224 | 90 | 0.0 | 0.0 | 0.00 | 0.00 | 0.00 | 48 | 1021.4 | |
| 20260906130219 | 87 | 315 | 0.9 | 1.7 | 0.00 | 0.00 | 0.00 | 51 | 1021.7 |
| 20260906125214 | 87 | 90 | 2.6 | 5.2 | 0.00 | 0.00 | 0.00 | 50 | 1021.7 |
| 20260906124210 | 89 | 315 | 0.9 | 1.7 | 0.00 | 0.00 | 0.00 | 48 | 1021.7 |
| 20260906123207 | 88 | 135 | 1.7 | 5.2 | 0.00 | 0.00 | 0.00 | 49 | 1021.7 |
| 20260906121712 | 87 | 112 | 0.9 | 1.7 | 0.00 | 0.00 | 0.00 | 50 | 1021.9 |
| 20260906120707 | 86 | 135 | 2.6 | 2.6 | 0.00 | 0.00 | 0.00 | 51 | 1021.8 |
| 20260906115703 | 86 | 112 | 1.7 | 3.5 | 0.00 | 0.00 | 0.00 | 50 | 1021.7 |
| 20260906114702 | 88 | 0 | 3.5 | 8.7 | 0.00 | 0.00 | 0.00 | 50 | 1021.7 |
| 20260906113716 | 87 | 135 | 0.9 | 1.7 | 0.00 | 0.00 | 0.00 | 49 | 1021.9 |
| 20260906111906 | 87 | 112 | 2.6 | 3.5 | 0.00 | 0.00 | 0.00 | 50 | 1022.1 |
| 20260906110903 | 88 | 315 | 1.7 | 2.6 | 0.00 | 0.00 | 0.00 | 50 | 1021.7 |
| 20260906105859 | 86 | 135 | 1.7 | 3.5 | 0.00 | 0.00 | 0.00 | 52 | 1022.1 |
| 20260906104855 | 85 | 337 | 1.7 | 5.2 | 0.00 | 0.00 | 0.00 | 53 | 1022.3 |
| 20260906102913 | 85 | 135 | 2.6 | 5.2 | 0.00 | 0.00 | 0.00 | 52 | 1022.4 |
| 20260906100903 | 86 | 135 | 1.7 | 3.5 | 0.00 | 0.00 | 0.00 | 52 | 1022.6 |
| 20260906095900 | 86 | 292 | 1.7 | 5.2 | 0.00 | 0.00 | 0.00 | 51 | 1022.6 |
| 20260906094857 | 87 | 202 | 0.0 | 1.7 | 0.00 | 0.00 | 0.00 | 50 | 1022.5 |
| 20260906093011 | 88 | 315 | 0.9 | 1.7 | 0.00 | 0.00 | 0.00 | 48 | 1022.5 |
| 20260906092049 | 88 | 292 | 1.7 | 2.6 | 0.00 | 0.00 | 0.00 | 49 | 1022.8 |
| 20260906090959 | 89 | 270 | 0.0 | 0.9 | 0.00 | 0.00 | 0.00 | 48 | 1022.7 |
| 20260906085955 | 87 | 315 | 1.7 | 1.7 | 0.00 | 0.00 | 0.00 | 49 | 1022.7 |
| 20260906084952 | 87 | 315 | 0.9 | 1.7 | 0.00 | 0.00 | 0.00 | 50 | 1022.6 |
| 20260906084009 | 88 | 0.0 | 0.9 | 0.00 | 0.00 | 0.00 | 50 | 1022.5 | |
| 20260906082945 | 85 | 315 | 0.0 | 1.7 | 0.00 | 0.00 | 0.00 | 53 | 1022.5 |
| 20260906081935 | 83 | 315 | 0.9 | 1.7 | 0.00 | 0.00 | 0.00 | 55 | 1022.6 |
| 20260906080931 | 82 | 292 | 0.9 | 1.7 | 0.00 | 0.00 | 0.00 | 56 | 1022.2 |
| 20260906075921 | 82 | 0.0 | 0.9 | 0.00 | 0.00 | 0.00 | 56 | 1022.1 | |
| 20260906074916 | 83 | 292 | 1.7 | 2.6 | 0.00 | 0.00 | 0.00 | 54 | 1022.2 |
| 20260906073913 | 82 | 315 | 0.9 | 1.7 | 0.00 | 0.00 | 0.00 | 56 | 1022.2 |
| 20260906072931 | 80 | 315 | 1.7 | 2.6 | 0.00 | 0.00 | 0.00 | 57 | 1022.1 |
| 20260906071907 | 80 | 315 | 1.7 | 1.7 | 0.00 | 0.00 | 0.00 | 57 | 1021.9 |
| 20260906070924 | 80 | 292 | 0.9 | 1.7 | 0.00 | 0.00 | 0.00 | 56 | 1022.0 |
| 20260906065901 | 80 | 0.0 | 0.0 | 0.00 | 0.00 | 0.00 | 58 | 1021.8 | |
| 20260906064857 | 78 | 292 | 0.9 | 1.7 | 0.00 | 0.00 | 0.00 | 60 | 1021.6 |
| 20260906063852 | 77 | 292 | 0.9 | 1.7 | 0.00 | 0.00 | 0.00 | 61 | 1021.7 |
| 20260906062851 | 77 | 337 | 0.0 | 0.9 | 0.00 | 0.00 | 0.00 | 60 | 1021.8 |
| 20260906061846 | 78 | 0.0 | 0.0 | 0.00 | 0.00 | 0.00 | 59 | 1021.8 | |
| 20260906061000 | 78 | 0.0 | 0.0 | 0.00 | 0.00 | 0.00 | 60 | 1021.5 | |
| 20260906055833 | 78 | 337 | 0.0 | 0.9 | 0.00 | 0.00 | 0.00 | 62 | 1021.1 |
| 20260906054829 | 76 | 315 | 0.9 | 1.7 | 0.00 | 0.00 | 0.00 | 62 | 1020.9 |
| 20260906053849 | 76 | 0.0 | 0.0 | 0.00 | 0.00 | 0.00 | 64 | 1020.8 | |
| 20260906052822 | 75 | 315 | 0.9 | 2.6 | 0.00 | 0.00 | 0.00 | 66 | 1020.6 |
| 20260906051819 | 74 | 315 | 1.7 | 2.6 | 0.00 | 0.00 | 0.00 | 66 | 1020.7 |
| 20260906050818 | 74 | 315 | 1.7 | 2.6 | 0.00 | 0.00 | 0.00 | 67 | 1020.5 |
| 20260906045812 | 74 | 315 | 0.9 | 1.7 | 0.00 | 0.00 | 0.00 | 67 | 1020.4 |
| 20260906044808 | 74 | 0.0 | 0.9 | 0.00 | 0.00 | 0.00 | 67 | 1020.3 | |
| 20260906042823 | 75 | 315 | 1.7 | 1.7 | 0.00 | 0.00 | 0.00 | 69 | 1020.2 |
| 20260906041819 | 75 | 315 | 0.0 | 1.7 | 0.00 | 0.00 | 0.00 | 68 | 1020.0 |
| 20260906040814 | 75 | 0 | 0.9 | 2.6 | 0.00 | 0.00 | 0.00 | 70 | 1019.9 |
| 20260906035811 | 75 | 315 | 2.6 | 5.2 | 0.00 | 0.00 | 0.00 | 71 | 1019.9 |
| 20260906034809 | 75 | 320 | 0.9 | 3.5 | 0.00 | 0.00 | 0.00 | 71 | 1019.9 |
| 20260906033759 | 76 | 337 | 1.7 | 3.5 | 0.00 | 0.00 | 0.00 | 71 | 1019.9 |
| 20260906032755 | 76 | 0 | 2.6 | 5.2 | 0.00 | 0.00 | 0.00 | 71 | 1019.9 |
| 20260906031752 | 76 | 315 | 2.6 | 5.2 | 0.00 | 0.00 | 0.00 | 71 | 1019.8 |
| 20260906030748 | 76 | 315 | 2.6 | 5.2 | 0.00 | 0.00 | 0.00 | 71 | 1019.4 |
| 20260906025745 | 76 | 335 | 2.6 | 5.2 | 0.00 | 0.00 | 0.00 | 72 | 1019.5 |
| 20260906024735 | 76 | 315 | 1.7 | 3.5 | 0.00 | 0.00 | 0.00 | 72 | 1019.6 |
| 20260906023731 | 77 | 0.0 | 1.7 | 0.00 | 0.00 | 0.00 | 72 | 1019.6 | |
| 20260906022722 | 77 | 315 | 3.5 | 5.2 | 0.00 | 0.00 | 0.00 | 72 | 1019.3 |
| 20260906021736 | 77 | 292 | 2.6 | 5.2 | 0.00 | 0.00 | 0.00 | 72 | 1019.4 |
| 20260906020714 | 77 | 337 | 0.9 | 5.2 | 0.00 | 0.00 | 0.00 | 71 | 1019.2 |
| 20260906015730 | 77 | 315 | 2.6 | 5.2 | 0.00 | 0.00 | 0.00 | 69 | 1019.0 |
| 20260906014701 | 77 | 315 | 2.6 | 7.8 | 0.00 | 0.00 | 0.00 | 67 | 1019.2 |
| 20260906013657 | 77 | 337 | 1.7 | 3.5 | 0.00 | 0.00 | 0.00 | 66 | 1019.5 |
| 20260906012321 | 77 | 22 | 1.7 | 2.6 | 0.00 | 0.00 | 0.00 | 65 | 1019.3 |
| 20260906010136 | 77 | 45 | 2.6 | 5.2 | 0.00 | 0.00 | 0.00 | 62 | 1018.9 |
| 20260906005153 | 77 | 337 | 1.7 | 3.5 | 0.00 | 0.00 | 0.00 | 61 | 1019.1 |
| 20260906004131 | 77 | 0 | 3.5 | 5.2 | 0.00 | 0.00 | 0.00 | 59 | 1019.1 |
| 20260906003107 | 76 | 45 | 0.9 | 2.6 | 0.00 | 0.00 | 0.00 | 57 | 1019.0 |
| 20260906002102 | 76 | 0.0 | 0.0 | 0.00 | 0.00 | 0.00 | 55 | 1019.1 | |
| 20260906001059 | 76 | 315 | 0.0 | 0.9 | 0.00 | 0.00 | 0.00 | 57 | 1019.1 |
| 20260906000056 | 77 | 315 | 0.9 | 1.7 | 0.00 | 0.00 | 0.00 | 56 | 1019.1 |
| 20260905234727 | 77 | 315 | 0.0 | 2.6 | 0.00 | 0.00 | 0.00 | 54 | 1018.9 |
| 20260905233723 | 78 | 90 | 0.0 | 0.9 | 0.00 | 0.00 | 0.00 | 53 | 1019.0 |
| 20260905232742 | 77 | 0.0 | 0.0 | 0.00 | 0.00 | 0.00 | 52 | 1019.1 | |
| 20260905231711 | 78 | 337 | 0.9 | 1.7 | 0.00 | 0.00 | 0.00 | 51 | 1018.9 |
| 20260905230710 | 77 | 315 | 0.9 | 3.5 | 0.00 | 0.00 | 0.00 | 54 | 1019.0 |
| 20260905225702 | 77 | 90 | 2.6 | 5.2 | 0.00 | 0.00 | 0.00 | 53 | 1018.5 |
| 20260905224659 | 78 | 315 | 0.9 | 1.7 | 0.00 | 0.00 | 0.00 | 52 | 1018.5 |
| 20260905223838 | 79 | 315 | 1.7 | 2.6 | 0.00 | 0.00 | 0.00 | 51 | 1018.1 |
| 20260905221838 | 79 | 315 | 1.7 | 2.6 | 0.00 | 0.00 | 0.00 | 51 | 1018.2 |
| 20260905220835 | 80 | 315 | 0.0 | 1.7 | 0.00 | 0.00 | 0.00 | 49 | 1018.2 |
| 20260905215853 | 81 | 0.0 | 0.9 | 0.00 | 0.00 | 0.00 | 47 | 1018.1 | |
| 20260905214823 | 81 | 315 | 1.7 | 2.6 | 0.00 | 0.00 | 0.00 | 47 | 1017.4 |
| 20260905213819 | 81 | 315 | 2.6 | 2.6 | 0.00 | 0.00 | 0.00 | 48 | 1017.7 |
| 20260905212815 | 81 | 315 | 1.7 | 3.5 | 0.00 | 0.00 | 0.00 | 49 | 1017.7 |
| 20260905211812 | 81 | 315 | 1.7 | 3.5 | 0.00 | 0.00 | 0.00 | 49 | 1017.7 |
| 20260905210809 | 82 | 315 | 2.6 | 3.5 | 0.00 | 0.00 | 0.00 | 50 | 1017.5 |
| 20260905205401 | 81 | 315 | 0.9 | 1.7 | 0.00 | 0.00 | 0.00 | 52 | 1017.5 |
| 20260905204334 | 81 | 315 | 2.6 | 2.6 | 0.00 | 0.00 | 0.00 | 54 | 1017.7 |
| 20260905203353 | 80 | 315 | 0.9 | 1.7 | 0.00 | 0.00 | 0.00 | 57 | 1017.4 |
| 20260905202322 | 80 | 292 | 0.9 | 1.7 | 0.00 | 0.00 | 0.00 | 59 | 1017.4 |
| 20260905201318 | 80 | 315 | 1.7 | 3.5 | 0.00 | 0.00 | 0.00 | 62 | 1017.3 |
| 20260905200313 | 80 | 315 | 0.9 | 1.7 | 0.00 | 0.00 | 0.00 | 63 | 1017.5 |
| 20260905195330 | 81 | 315 | 0.9 | 1.7 | 0.00 | 0.00 | 0.00 | 63 | 1017.3 |
| 20260905194306 | 81 | 315 | 0.0 | 0.9 | 0.00 | 0.00 | 0.00 | 63 | 1017.0 |